Date_Time,Julian_Date,Latitude,Longitude,Instrument_Depth,U,V,Speed,Direction
(yyyy-mm-dd hh:mn:ss UTC),(JD),(+ deg. North),(+ deg. East),(m),(cm/s),(cm/s),(cm/s),(deg True)
1983-10-04 17:30:00 UTC,2445612.229167,28.7467,-95.2267,0206,2.42,4.37,5.0000,29.0000
1983-10-04 18:00:00 UTC,2445612.250000,28.7467,-95.2267,0206,3.09,5.14,6.0000,31.0000
1983-10-04 18:30:00 UTC,2445612.270833,28.7467,-95.2267,0206,4.02,5.73,7.0000,35.0000
1983-10-04 19:00:00 UTC,2445612.291667,28.7467,-95.2267,0206,3.28,3.77,5.0000,41.0000
1983-10-04 19:30:00 UTC,2445612.312500,28.7467,-95.2267,0206,2.12,2.12,3.0000,45.0000
1983-10-04 20:00:00 UTC,2445612.333333,28.7467,-95.2267,0206,2.05,2.19,3.0000,43.0000
1983-10-04 20:30:00 UTC,2445612.354167,28.7467,-95.2267,0206,0.88,-0.47,1.0000,118.0000
1983-10-04 21:00:00 UTC,2445612.375000,28.7467,-95.2267,0206,-0.42,-3.98,4.0000,186.0000
1983-10-04 21:30:00 UTC,2445612.395833,28.7467,-95.2267,0206,-1.38,-4.81,5.0000,196.0000
1983-10-04 22:00:00 UTC,2445612.416667,28.7467,-95.2267,0206,-1.79,-4.67,5.0000,201.0000
1983-10-04 22:30:00 UTC,2445612.437500,28.7467,-95.2267,0206,-1.43,-3.73,4.0000,201.0000
1983-10-04 23:00:00 UTC,2445612.458333,28.7467,-95.2267,0206,-0.58,-1.91,2.0000,197.0000
1983-10-04 23:30:00 UTC,2445612.479167,28.7467,-95.2267,0206,0.00,-0.00,0.0000,180.0000
1983-10-05 00:00:00 UTC,2445612.500000,28.7467,-95.2267,0206,0.87,0.48,1.0000,61.0000
1983-10-05 00:30:00 UTC,2445612.520833,28.7467,-95.2267,0206,1.78,0.91,2.0000,63.0000
1983-10-05 01:00:00 UTC,2445612.541667,28.7467,-95.2267,0206,3.50,1.94,4.0000,61.0000
1983-10-05 01:30:00 UTC,2445612.562500,28.7467,-95.2267,0206,4.19,2.72,5.0000,57.0000
1983-10-05 02:00:00 UTC,2445612.583333,28.7467,-95.2267,0206,5.73,4.02,7.0000,55.0000
1983-10-05 02:30:00 UTC,2445612.604167,28.7467,-95.2267,0206,7.28,5.29,9.0000,54.0000
1983-10-05 03:00:00 UTC,2445612.625000,28.7467,-95.2267,0206,5.85,5.46,8.0000,47.0000
1983-10-05 03:30:00 UTC,2445612.645833,28.7467,-95.2267,0206,3.91,5.80,7.0000,34.0000
1983-10-05 04:00:00 UTC,2445612.666667,28.7467,-95.2267,0206,3.13,7.36,8.0000,23.0000
1983-10-05 04:30:00 UTC,2445612.687500,28.7467,-95.2267,0206,1.81,6.76,7.0000,15.0000
1983-10-05 05:00:00 UTC,2445612.708333,28.7467,-95.2267,0206,1.10,6.91,7.0000,9.0000
1983-10-05 05:30:00 UTC,2445612.729167,28.7467,-95.2267,0206,1.35,5.85,6.0000,13.0000
1983-10-05 06:00:00 UTC,2445612.750000,28.7467,-95.2267,0206,2.16,6.66,7.0000,18.0000
1983-10-05 06:30:00 UTC,2445612.770833,28.7467,-95.2267,0206,1.93,6.73,7.0000,16.0000
1983-10-05 07:00:00 UTC,2445612.791667,28.7467,-95.2267,0206,1.34,6.87,7.0000,11.0000
1983-10-05 07:30:00 UTC,2445612.812500,28.7467,-95.2267,0206,1.10,6.91,7.0000,9.0000
1983-10-05 08:00:00 UTC,2445612.833333,28.7467,-95.2267,0206,1.22,6.89,7.0000,10.0000
1983-10-05 08:30:00 UTC,2445612.854167,28.7467,-95.2267,0206,0.63,5.97,6.0000,6.0000
1983-10-05 09:00:00 UTC,2445612.875000,28.7467,-95.2267,0206,-0.61,4.96,5.0000,353.0000
1983-10-05 09:30:00 UTC,2445612.895833,28.7467,-95.2267,0206,-1.95,4.60,5.0000,337.0000
1983-10-05 10:00:00 UTC,2445612.916667,28.7467,-95.2267,0206,-2.50,4.33,5.0000,330.0000
1983-10-05 10:30:00 UTC,2445612.937500,28.7467,-95.2267,0206,-2.65,4.24,5.0000,328.0000
1983-10-05 11:00:00 UTC,2445612.958333,28.7467,-95.2267,0206,-2.58,4.29,5.0000,329.0000
1983-10-05 11:30:00 UTC,2445612.979167,28.7467,-95.2267,0206,-1.79,4.67,5.0000,339.0000
1983-10-05 12:00:00 UTC,2445613.000000,28.7467,-95.2267,0206,-0.94,5.93,6.0000,351.0000
1983-10-05 12:30:00 UTC,2445613.020833,28.7467,-95.2267,0206,-0.12,7.00,7.0000,359.0000
1983-10-05 13:00:00 UTC,2445613.041667,28.7467,-95.2267,0206,0.56,7.98,8.0000,4.0000
1983-10-05 13:30:00 UTC,2445613.062500,28.7467,-95.2267,0206,1.05,9.95,10.0000,6.0000
1983-10-05 14:00:00 UTC,2445613.083333,28.7467,-95.2267,0206,1.39,9.90,10.0000,8.0000
1983-10-05 14:30:00 UTC,2445613.104167,28.7467,-95.2267,0206,2.59,9.66,10.0000,15.0000
1983-10-05 15:00:00 UTC,2445613.125000,28.7467,-95.2267,0206,3.66,8.22,9.0000,24.0000
1983-10-05 15:30:00 UTC,2445613.145833,28.7467,-95.2267,0206,3.76,7.06,8.0000,28.0000
1983-10-05 16:00:00 UTC,2445613.166667,28.7467,-95.2267,0206,3.63,7.13,8.0000,27.0000
1983-10-05 16:30:00 UTC,2445613.187500,28.7467,-95.2267,0206,2.62,6.49,7.0000,22.0000
1983-10-05 17:00:00 UTC,2445613.208333,28.7467,-95.2267,0206,1.69,6.79,7.0000,14.0000
1983-10-05 17:30:00 UTC,2445613.229167,28.7467,-95.2267,0206,1.22,6.89,7.0000,10.0000
1983-10-05 18:00:00 UTC,2445613.250000,28.7467,-95.2267,0206,1.34,6.87,7.0000,11.0000
1983-10-05 18:30:00 UTC,2445613.270833,28.7467,-95.2267,0206,1.34,6.87,7.0000,11.0000
1983-10-05 19:00:00 UTC,2445613.291667,28.7467,-95.2267,0206,1.25,5.87,6.0000,12.0000
1983-10-05 19:30:00 UTC,2445613.312500,28.7467,-95.2267,0206,1.04,4.89,5.0000,12.0000
1983-10-05 20:00:00 UTC,2445613.333333,28.7467,-95.2267,0206,0.21,3.99,4.0000,3.0000
1983-10-05 20:30:00 UTC,2445613.354167,28.7467,-95.2267,0206,-0.78,2.90,3.0000,345.0000
1983-10-05 21:00:00 UTC,2445613.375000,28.7467,-95.2267,0206,-0.48,0.87,1.0000,331.0000
1983-10-05 21:30:00 UTC,2445613.395833,28.7467,-95.2267,0206,-0.00,0.00,0.0000,331.0000
1983-10-05 22:00:00 UTC,2445613.416667,28.7467,-95.2267,0206,0.00,0.00,0.0000,6.0000
1983-10-05 22:30:00 UTC,2445613.437500,28.7467,-95.2267,0206,0.00,-0.00,0.0000,157.0000
1983-10-05 23:00:00 UTC,2445613.458333,28.7467,-95.2267,0206,-0.00,0.00,0.0000,335.0000
1983-10-05 23:30:00 UTC,2445613.479167,28.7467,-95.2267,0206,-0.31,0.95,1.0000,342.0000
1983-10-06 00:00:00 UTC,2445613.500000,28.7467,-95.2267,0206,-0.57,2.94,3.0000,349.0000
1983-10-06 00:30:00 UTC,2445613.520833,28.7467,-95.2267,0206,-0.35,4.99,5.0000,356.0000
1983-10-06 01:00:00 UTC,2445613.541667,28.7467,-95.2267,0206,0.12,7.00,7.0000,1.0000
1983-10-06 01:30:00 UTC,2445613.562500,28.7467,-95.2267,0206,0.56,7.98,8.0000,4.0000
1983-10-06 02:00:00 UTC,2445613.583333,28.7467,-95.2267,0206,0.97,7.94,8.0000,7.0000
1983-10-06 02:30:00 UTC,2445613.604167,28.7467,-95.2267,0206,1.53,7.85,8.0000,11.0000
1983-10-06 03:00:00 UTC,2445613.625000,28.7467,-95.2267,0206,2.21,7.69,8.0000,16.0000
1983-10-06 03:30:00 UTC,2445613.645833,28.7467,-95.2267,0206,2.39,6.58,7.0000,20.0000
1983-10-06 04:00:00 UTC,2445613.666667,28.7467,-95.2267,0206,2.51,6.54,7.0000,21.0000
1983-10-06 04:30:00 UTC,2445613.687500,28.7467,-95.2267,0206,2.74,6.44,7.0000,23.0000
1983-10-06 05:00:00 UTC,2445613.708333,28.7467,-95.2267,0206,2.96,6.34,7.0000,25.0000
1983-10-06 05:30:00 UTC,2445613.729167,28.7467,-95.2267,0206,2.44,5.48,6.0000,24.0000
1983-10-06 06:00:00 UTC,2445613.750000,28.7467,-95.2267,0206,2.44,5.48,6.0000,24.0000
1983-10-06 06:30:00 UTC,2445613.770833,28.7467,-95.2267,0206,2.72,5.35,6.0000,27.0000
1983-10-06 07:00:00 UTC,2445613.791667,28.7467,-95.2267,0206,2.11,4.53,5.0000,25.0000
1983-10-06 07:30:00 UTC,2445613.812500,28.7467,-95.2267,0206,1.21,4.85,5.0000,14.0000
1983-10-06 08:00:00 UTC,2445613.833333,28.7467,-95.2267,0206,0.26,4.99,5.0000,3.0000
1983-10-06 08:30:00 UTC,2445613.854167,28.7467,-95.2267,0206,-0.63,3.95,4.0000,351.0000
1983-10-06 09:00:00 UTC,2445613.875000,28.7467,-95.2267,0206,-1.50,3.71,4.0000,338.0000
1983-10-06 09:30:00 UTC,2445613.895833,28.7467,-95.2267,0206,-1.88,3.53,4.0000,332.0000
1983-10-06 10:00:00 UTC,2445613.916667,28.7467,-95.2267,0206,-2.18,3.35,4.0000,327.0000
1983-10-06 10:30:00 UTC,2445613.937500,28.7467,-95.2267,0206,-2.46,3.15,4.0000,322.0000
1983-10-06 11:00:00 UTC,2445613.958333,28.7467,-95.2267,0206,-2.52,3.11,4.0000,321.0000
1983-10-06 11:30:00 UTC,2445613.979167,28.7467,-95.2267,0206,-2.46,3.15,4.0000,322.0000
1983-10-06 12:00:00 UTC,2445614.000000,28.7467,-95.2267,0206,-2.18,3.35,4.0000,327.0000
1983-10-06 12:30:00 UTC,2445614.020833,28.7467,-95.2267,0206,-1.17,3.83,4.0000,343.0000
1983-10-06 13:00:00 UTC,2445614.041667,28.7467,-95.2267,0206,-0.17,5.00,5.0000,358.0000
1983-10-06 13:30:00 UTC,2445614.062500,28.7467,-95.2267,0206,0.70,4.95,5.0000,8.0000
1983-10-06 14:00:00 UTC,2445614.083333,28.7467,-95.2267,0206,1.75,5.74,6.0000,17.0000
1983-10-06 14:30:00 UTC,2445614.104167,28.7467,-95.2267,0206,2.72,5.35,6.0000,27.0000
1983-10-06 15:00:00 UTC,2445614.125000,28.7467,-95.2267,0206,3.21,3.83,5.0000,40.0000
1983-10-06 15:30:00 UTC,2445614.145833,28.7467,-95.2267,0206,3.53,1.88,4.0000,62.0000
1983-10-06 16:00:00 UTC,2445614.166667,28.7467,-95.2267,0206,3.97,0.49,4.0000,83.0000
1983-10-06 16:30:00 UTC,2445614.187500,28.7467,-95.2267,0206,4.00,0.14,4.0000,88.0000
1983-10-06 17:00:00 UTC,2445614.208333,28.7467,-95.2267,0206,3.98,0.42,4.0000,84.0000
1983-10-06 17:30:00 UTC,2445614.229167,28.7467,-95.2267,0206,3.00,0.05,3.0000,89.0000
1983-10-06 18:00:00 UTC,2445614.250000,28.7467,-95.2267,0206,2.94,-0.57,3.0000,101.0000
1983-10-06 18:30:00 UTC,2445614.270833,28.7467,-95.2267,0206,1.95,-0.45,2.0000,103.0000
1983-10-06 19:00:00 UTC,2445614.291667,28.7467,-95.2267,0206,1.99,-0.24,2.0000,97.0000
1983-10-06 19:30:00 UTC,2445614.312500,28.7467,-95.2267,0206,0.99,-0.16,1.0000,99.0000
1983-10-06 20:00:00 UTC,2445614.333333,28.7467,-95.2267,0206,0.69,-0.72,1.0000,136.0000
1983-10-06 20:30:00 UTC,2445614.354167,28.7467,-95.2267,0206,-0.02,-1.00,1.0000,181.0000
1983-10-06 21:00:00 UTC,2445614.375000,28.7467,-95.2267,0206,-0.83,-2.88,3.0000,196.0000
1983-10-06 21:30:00 UTC,2445614.395833,28.7467,-95.2267,0206,-1.88,-3.53,4.0000,208.0000
1983-10-06 22:00:00 UTC,2445614.416667,28.7467,-95.2267,0206,-2.72,-4.19,5.0000,213.0000
1983-10-06 22:30:00 UTC,2445614.437500,28.7467,-95.2267,0206,-2.72,-4.19,5.0000,213.0000
1983-10-06 23:00:00 UTC,2445614.458333,28.7467,-95.2267,0206,-2.65,-4.24,5.0000,212.0000
1983-10-06 23:30:00 UTC,2445614.479167,28.7467,-95.2267,0206,-2.91,-5.25,6.0000,209.0000
1983-10-07 00:00:00 UTC,2445614.500000,28.7467,-95.2267,0206,-2.82,-5.30,6.0000,208.0000
1983-10-07 00:30:00 UTC,2445614.520833,28.7467,-95.2267,0206,-3.18,-6.24,7.0000,207.0000
1983-10-07 01:00:00 UTC,2445614.541667,28.7467,-95.2267,0206,-2.62,-6.49,7.0000,202.0000
1983-10-07 01:30:00 UTC,2445614.562500,28.7467,-95.2267,0206,-1.46,-6.85,7.0000,192.0000
1983-10-07 02:00:00 UTC,2445614.583333,28.7467,-95.2267,0206,-0.24,-7.00,7.0000,182.0000
1983-10-07 02:30:00 UTC,2445614.604167,28.7467,-95.2267,0206,0.37,-6.99,7.0000,177.0000
1983-10-07 03:00:00 UTC,2445614.625000,28.7467,-95.2267,0206,0.63,-5.97,6.0000,174.0000
1983-10-07 03:30:00 UTC,2445614.645833,28.7467,-95.2267,0206,1.12,-4.87,5.0000,167.0000
1983-10-07 04:00:00 UTC,2445614.666667,28.7467,-95.2267,0206,1.56,-3.68,4.0000,157.0000
1983-10-07 04:30:00 UTC,2445614.687500,28.7467,-95.2267,0206,2.42,-4.37,5.0000,151.0000
1983-10-07 05:00:00 UTC,2445614.708333,28.7467,-95.2267,0206,2.42,-4.37,5.0000,151.0000
1983-10-07 05:30:00 UTC,2445614.729167,28.7467,-95.2267,0206,2.34,-5.52,6.0000,157.0000
1983-10-07 06:00:00 UTC,2445614.750000,28.7467,-95.2267,0206,1.45,-5.82,6.0000,166.0000
1983-10-07 06:30:00 UTC,2445614.770833,28.7467,-95.2267,0206,1.10,-6.91,7.0000,171.0000
1983-10-07 07:00:00 UTC,2445614.791667,28.7467,-95.2267,0206,0.37,-6.99,7.0000,177.0000
1983-10-07 07:30:00 UTC,2445614.812500,28.7467,-95.2267,0206,-0.31,-5.99,6.0000,183.0000
1983-10-07 08:00:00 UTC,2445614.833333,28.7467,-95.2267,0206,-0.37,-6.99,7.0000,183.0000
1983-10-07 08:30:00 UTC,2445614.854167,28.7467,-95.2267,0206,-0.70,-7.97,8.0000,185.0000
1983-10-07 09:00:00 UTC,2445614.875000,28.7467,-95.2267,0206,-1.41,-8.89,9.0000,189.0000
1983-10-07 09:30:00 UTC,2445614.895833,28.7467,-95.2267,0206,-2.02,-8.77,9.0000,193.0000
1983-10-07 10:00:00 UTC,2445614.916667,28.7467,-95.2267,0206,-2.92,-9.56,10.0000,197.0000
1983-10-07 10:30:00 UTC,2445614.937500,28.7467,-95.2267,0206,-3.40,-10.46,11.0000,198.0000
1983-10-07 11:00:00 UTC,2445614.958333,28.7467,-95.2267,0206,-3.22,-10.52,11.0000,197.0000
1983-10-07 11:30:00 UTC,2445614.979167,28.7467,-95.2267,0206,-3.91,-11.35,12.0000,199.0000
1983-10-07 12:00:00 UTC,2445615.000000,28.7467,-95.2267,0206,-3.58,-10.40,11.0000,199.0000
1983-10-07 12:30:00 UTC,2445615.020833,28.7467,-95.2267,0206,-3.40,-10.46,11.0000,198.0000
1983-10-07 13:00:00 UTC,2445615.041667,28.7467,-95.2267,0206,-3.03,-10.57,11.0000,196.0000
1983-10-07 13:30:00 UTC,2445615.062500,28.7467,-95.2267,0206,-2.42,-9.70,10.0000,194.0000
1983-10-07 14:00:00 UTC,2445615.083333,28.7467,-95.2267,0206,-2.25,-9.74,10.0000,193.0000
1983-10-07 14:30:00 UTC,2445615.104167,28.7467,-95.2267,0206,-1.72,-8.83,9.0000,191.0000
1983-10-07 15:00:00 UTC,2445615.125000,28.7467,-95.2267,0206,-1.25,-8.91,9.0000,188.0000
1983-10-07 15:30:00 UTC,2445615.145833,28.7467,-95.2267,0206,-0.84,-7.96,8.0000,186.0000
1983-10-07 16:00:00 UTC,2445615.166667,28.7467,-95.2267,0206,-0.28,-8.00,8.0000,182.0000
1983-10-07 16:30:00 UTC,2445615.187500,28.7467,-95.2267,0206,0.12,-7.00,7.0000,179.0000
1983-10-07 17:00:00 UTC,2445615.208333,28.7467,-95.2267,0206,0.21,-6.00,6.0000,178.0000
1983-10-07 17:30:00 UTC,2445615.229167,28.7467,-95.2267,0206,0.26,-4.99,5.0000,177.0000
1983-10-07 18:00:00 UTC,2445615.250000,28.7467,-95.2267,0206,0.26,-4.99,5.0000,177.0000
1983-10-07 18:30:00 UTC,2445615.270833,28.7467,-95.2267,0206,0.42,-3.98,4.0000,174.0000
1983-10-07 19:00:00 UTC,2445615.291667,28.7467,-95.2267,0206,0.76,-3.93,4.0000,169.0000
1983-10-07 19:30:00 UTC,2445615.312500,28.7467,-95.2267,0206,0.76,-3.93,4.0000,169.0000
1983-10-07 20:00:00 UTC,2445615.333333,28.7467,-95.2267,0206,0.69,-3.94,4.0000,170.0000
1983-10-07 20:30:00 UTC,2445615.354167,28.7467,-95.2267,0206,0.61,-4.96,5.0000,173.0000
1983-10-07 21:00:00 UTC,2445615.375000,28.7467,-95.2267,0206,0.26,-4.99,5.0000,177.0000
1983-10-07 21:30:00 UTC,2445615.395833,28.7467,-95.2267,0206,-0.31,-5.99,6.0000,183.0000
1983-10-07 22:00:00 UTC,2445615.416667,28.7467,-95.2267,0206,-1.04,-5.91,6.0000,190.0000
1983-10-07 22:30:00 UTC,2445615.437500,28.7467,-95.2267,0206,-1.65,-5.77,6.0000,196.0000
1983-10-07 23:00:00 UTC,2445615.458333,28.7467,-95.2267,0206,-2.28,-6.62,7.0000,199.0000
1983-10-07 23:30:00 UTC,2445615.479167,28.7467,-95.2267,0206,-2.62,-6.49,7.0000,202.0000
1983-10-08 00:00:00 UTC,2445615.500000,28.7467,-95.2267,0206,-3.76,-7.06,8.0000,208.0000
1983-10-08 00:30:00 UTC,2445615.520833,28.7467,-95.2267,0206,-4.24,-6.78,8.0000,212.0000
1983-10-08 01:00:00 UTC,2445615.541667,28.7467,-95.2267,0206,-4.02,-5.73,7.0000,215.0000
1983-10-08 01:30:00 UTC,2445615.562500,28.7467,-95.2267,0206,-3.53,-4.85,6.0000,216.0000
1983-10-08 02:00:00 UTC,2445615.583333,28.7467,-95.2267,0206,-3.01,-3.99,5.0000,217.0000
1983-10-08 02:30:00 UTC,2445615.604167,28.7467,-95.2267,0206,-3.08,-3.94,5.0000,218.0000
1983-10-08 03:00:00 UTC,2445615.625000,28.7467,-95.2267,0206,-2.41,-3.19,4.0000,217.0000
1983-10-08 03:30:00 UTC,2445615.645833,28.7467,-95.2267,0206,-1.63,-2.52,3.0000,213.0000
1983-10-08 04:00:00 UTC,2445615.666667,28.7467,-95.2267,0206,-0.45,-0.89,1.0000,207.0000
1983-10-08 04:30:00 UTC,2445615.687500,28.7467,-95.2267,0206,-0.00,-0.00,0.0000,196.0000
1983-10-08 05:00:00 UTC,2445615.708333,28.7467,-95.2267,0206,0.44,-0.90,1.0000,154.0000
1983-10-08 05:30:00 UTC,2445615.729167,28.7467,-95.2267,0206,0.91,-1.78,2.0000,153.0000
1983-10-08 06:00:00 UTC,2445615.750000,28.7467,-95.2267,0206,0.91,-1.78,2.0000,153.0000
1983-10-08 06:30:00 UTC,2445615.770833,28.7467,-95.2267,0206,0.37,-0.93,1.0000,158.0000
1983-10-08 07:00:00 UTC,2445615.791667,28.7467,-95.2267,0206,-0.00,-0.00,0.0000,205.0000
1983-10-08 07:30:00 UTC,2445615.812500,28.7467,-95.2267,0206,-0.00,-0.00,0.0000,256.0000
1983-10-08 08:00:00 UTC,2445615.833333,28.7467,-95.2267,0206,0.39,-0.92,1.0000,157.0000
1983-10-08 08:30:00 UTC,2445615.854167,28.7467,-95.2267,0206,0.62,-1.90,2.0000,162.0000
1983-10-08 09:00:00 UTC,2445615.875000,28.7467,-95.2267,0206,0.69,-3.94,4.0000,170.0000
1983-10-08 09:30:00 UTC,2445615.895833,28.7467,-95.2267,0206,-0.21,-3.99,4.0000,183.0000
1983-10-08 10:00:00 UTC,2445615.916667,28.7467,-95.2267,0206,-1.29,-4.83,5.0000,195.0000
1983-10-08 10:30:00 UTC,2445615.937500,28.7467,-95.2267,0206,-1.87,-4.64,5.0000,202.0000
1983-10-08 11:00:00 UTC,2445615.958333,28.7467,-95.2267,0206,-2.34,-5.52,6.0000,203.0000
1983-10-08 11:30:00 UTC,2445615.979167,28.7467,-95.2267,0206,-2.25,-5.56,6.0000,202.0000
1983-10-08 12:00:00 UTC,2445616.000000,28.7467,-95.2267,0206,-2.85,-6.39,7.0000,204.0000
1983-10-08 12:30:00 UTC,2445616.020833,28.7467,-95.2267,0206,-3.29,-6.18,7.0000,208.0000
1983-10-08 13:00:00 UTC,2445616.041667,28.7467,-95.2267,0206,-3.09,-5.14,6.0000,211.0000
1983-10-08 13:30:00 UTC,2445616.062500,28.7467,-95.2267,0206,-3.18,-5.09,6.0000,212.0000
1983-10-08 14:00:00 UTC,2445616.083333,28.7467,-95.2267,0206,-2.87,-4.10,5.0000,215.0000
1983-10-08 14:30:00 UTC,2445616.104167,28.7467,-95.2267,0206,-3.41,-3.66,5.0000,223.0000
1983-10-08 15:00:00 UTC,2445616.125000,28.7467,-95.2267,0206,-2.97,-2.68,4.0000,228.0000
1983-10-08 15:30:00 UTC,2445616.145833,28.7467,-95.2267,0206,-2.19,-2.05,3.0000,227.0000
1983-10-08 16:00:00 UTC,2445616.166667,28.7467,-95.2267,0206,-1.34,-1.49,2.0000,222.0000
1983-10-08 16:30:00 UTC,2445616.187500,28.7467,-95.2267,0206,-0.60,-0.80,1.0000,217.0000
1983-10-08 17:00:00 UTC,2445616.208333,28.7467,-95.2267,0206,-0.00,-0.00,0.0000,213.0000
1983-10-08 17:30:00 UTC,2445616.229167,28.7467,-95.2267,0206,0.00,0.00,0.0000,36.0000
1983-10-08 18:00:00 UTC,2445616.250000,28.7467,-95.2267,0206,0.00,0.00,0.0000,0.0000
1983-10-08 18:30:00 UTC,2445616.270833,28.7467,-95.2267,0206,0.00,0.00,0.0000,0.0000
1983-10-08 19:00:00 UTC,2445616.291667,28.7467,-95.2267,0206,-0.00,-0.00,0.0000,223.0000
1983-10-08 19:30:00 UTC,2445616.312500,28.7467,-95.2267,0206,0.00,0.00,0.0000,41.0000
1983-10-08 20:00:00 UTC,2445616.333333,28.7467,-95.2267,0206,0.71,0.71,1.0000,45.0000
1983-10-08 20:30:00 UTC,2445616.354167,28.7467,-95.2267,0206,1.46,1.36,2.0000,47.0000
1983-10-08 21:00:00 UTC,2445616.375000,28.7467,-95.2267,0206,0.78,0.63,1.0000,51.0000
1983-10-08 21:30:00 UTC,2445616.395833,28.7467,-95.2267,0206,0.00,0.00,0.0000,56.0000
1983-10-08 22:00:00 UTC,2445616.416667,28.7467,-95.2267,0206,0.98,-0.17,1.0000,100.0000
1983-10-08 22:30:00 UTC,2445616.437500,28.7467,-95.2267,0206,2.74,-1.22,3.0000,114.0000
1983-10-08 23:00:00 UTC,2445616.458333,28.7467,-95.2267,0206,4.33,-2.50,5.0000,120.0000
1983-10-08 23:30:00 UTC,2445616.479167,28.7467,-95.2267,0206,3.24,-2.35,4.0000,126.0000
1983-10-09 00:00:00 UTC,2445616.500000,28.7467,-95.2267,0206,0.69,-0.72,1.0000,136.0000
1983-10-09 00:30:00 UTC,2445616.520833,28.7467,-95.2267,0206,-0.05,-1.00,1.0000,183.0000
1983-10-09 01:00:00 UTC,2445616.541667,28.7467,-95.2267,0206,-0.21,-0.98,1.0000,192.0000
1983-10-09 01:30:00 UTC,2445616.562500,28.7467,-95.2267,0206,0.47,-2.96,3.0000,171.0000
1983-10-09 02:00:00 UTC,2445616.583333,28.7467,-95.2267,0206,2.72,-4.19,5.0000,147.0000
1983-10-09 02:30:00 UTC,2445616.604167,28.7467,-95.2267,0206,5.04,-4.86,7.0000,134.0000
1983-10-09 03:00:00 UTC,2445616.625000,28.7467,-95.2267,0206,4.50,-5.36,7.0000,140.0000
1983-10-09 03:30:00 UTC,2445616.645833,28.7467,-95.2267,0206,1.71,-4.70,5.0000,160.0000
1983-10-09 04:00:00 UTC,2445616.666667,28.7467,-95.2267,0206,0.38,-1.96,2.0000,169.0000
1983-10-09 04:30:00 UTC,2445616.687500,28.7467,-95.2267,0206,3.00,-0.05,3.0000,91.0000
1983-10-09 05:00:00 UTC,2445616.708333,28.7467,-95.2267,0206,5.80,1.55,6.0000,75.0000
1983-10-09 05:30:00 UTC,2445616.729167,28.7467,-95.2267,0206,7.52,2.74,8.0000,70.0000
1983-10-09 06:00:00 UTC,2445616.750000,28.7467,-95.2267,0206,5.30,2.82,6.0000,62.0000
1983-10-09 06:30:00 UTC,2445616.770833,28.7467,-95.2267,0206,1.31,1.51,2.0000,41.0000
1983-10-09 07:00:00 UTC,2445616.791667,28.7467,-95.2267,0206,0.62,0.79,1.0000,38.0000
1983-10-09 07:30:00 UTC,2445616.812500,28.7467,-95.2267,0206,1.62,1.18,2.0000,54.0000
1983-10-09 08:00:00 UTC,2445616.833333,28.7467,-95.2267,0206,3.32,2.24,4.0000,56.0000
1983-10-09 08:30:00 UTC,2445616.854167,28.7467,-95.2267,0206,3.11,2.52,4.0000,51.0000
1983-10-09 09:00:00 UTC,2445616.875000,28.7467,-95.2267,0206,1.17,2.76,3.0000,23.0000
1983-10-09 09:30:00 UTC,2445616.895833,28.7467,-95.2267,0206,-0.28,1.98,2.0000,352.0000
1983-10-09 10:00:00 UTC,2445616.916667,28.7467,-95.2267,0206,0.28,0.96,1.0000,16.0000
1983-10-09 10:30:00 UTC,2445616.937500,28.7467,-95.2267,0206,2.00,0.03,2.0000,89.0000
1983-10-09 11:00:00 UTC,2445616.958333,28.7467,-95.2267,0206,2.90,-0.78,3.0000,105.0000
1983-10-09 11:30:00 UTC,2445616.979167,28.7467,-95.2267,0206,2.30,-1.93,3.0000,130.0000
1983-10-09 12:00:00 UTC,2445617.000000,28.7467,-95.2267,0206,2.00,-3.46,4.0000,150.0000
1983-10-09 12:30:00 UTC,2445617.020833,28.7467,-95.2267,0206,1.21,-4.85,5.0000,166.0000
1983-10-09 13:00:00 UTC,2445617.041667,28.7467,-95.2267,0206,0.21,-6.00,6.0000,178.0000
1983-10-09 13:30:00 UTC,2445617.062500,28.7467,-95.2267,0206,-0.97,-7.94,8.0000,187.0000
1983-10-09 14:00:00 UTC,2445617.083333,28.7467,-95.2267,0206,-2.18,-8.73,9.0000,194.0000
1983-10-09 14:30:00 UTC,2445617.104167,28.7467,-95.2267,0206,-2.47,-7.61,8.0000,198.0000
1983-10-09 15:00:00 UTC,2445617.125000,28.7467,-95.2267,0206,-3.52,-8.28,9.0000,203.0000
1983-10-09 15:30:00 UTC,2445617.145833,28.7467,-95.2267,0206,-4.90,-7.55,9.0000,213.0000
1983-10-09 16:00:00 UTC,2445617.166667,28.7467,-95.2267,0206,-5.56,-5.75,8.0000,224.0000
1983-10-09 16:30:00 UTC,2445617.187500,28.7467,-95.2267,0206,-4.91,-3.44,6.0000,235.0000
1983-10-09 17:00:00 UTC,2445617.208333,28.7467,-95.2267,0206,-4.41,-2.35,5.0000,242.0000
1983-10-09 17:30:00 UTC,2445617.229167,28.7467,-95.2267,0206,-2.60,-1.50,3.0000,240.0000
1983-10-09 18:00:00 UTC,2445617.250000,28.7467,-95.2267,0206,-0.74,-0.67,1.0000,228.0000
1983-10-09 18:30:00 UTC,2445617.270833,28.7467,-95.2267,0206,0.00,0.00,0.0000,86.0000
1983-10-09 19:00:00 UTC,2445617.291667,28.7467,-95.2267,0206,1.88,0.68,2.0000,70.0000
1983-10-09 19:30:00 UTC,2445617.312500,28.7467,-95.2267,0206,4.81,1.38,5.0000,74.0000
1983-10-09 20:00:00 UTC,2445617.333333,28.7467,-95.2267,0206,7.88,1.39,8.0000,80.0000
1983-10-09 20:30:00 UTC,2445617.354167,28.7467,-95.2267,0206,7.92,1.11,8.0000,82.0000
1983-10-09 21:00:00 UTC,2445617.375000,28.7467,-95.2267,0206,6.91,1.10,7.0000,81.0000
1983-10-09 21:30:00 UTC,2445617.395833,28.7467,-95.2267,0206,3.96,0.56,4.0000,82.0000
1983-10-09 22:00:00 UTC,2445617.416667,28.7467,-95.2267,0206,3.90,0.90,4.0000,77.0000
1983-10-09 22:30:00 UTC,2445617.437500,28.7467,-95.2267,0206,5.94,0.84,6.0000,82.0000
1983-10-09 23:00:00 UTC,2445617.458333,28.7467,-95.2267,0206,8.99,-0.31,9.0000,92.0000
1983-10-09 23:30:00 UTC,2445617.479167,28.7467,-95.2267,0206,9.90,-1.39,10.0000,98.0000
1983-10-10 00:00:00 UTC,2445617.500000,28.7467,-95.2267,0206,7.69,-2.21,8.0000,106.0000
1983-10-10 00:30:00 UTC,2445617.520833,28.7467,-95.2267,0206,4.60,-3.86,6.0000,130.0000
1983-10-10 01:00:00 UTC,2445617.541667,28.7467,-95.2267,0206,3.78,-4.66,6.0000,141.0000
1983-10-10 01:30:00 UTC,2445617.562500,28.7467,-95.2267,0206,4.60,-3.86,6.0000,130.0000
1983-10-10 02:00:00 UTC,2445617.583333,28.7467,-95.2267,0206,7.31,-3.25,8.0000,114.0000
1983-10-10 02:30:00 UTC,2445617.604167,28.7467,-95.2267,0206,10.72,-2.47,11.0000,103.0000
1983-10-10 03:00:00 UTC,2445617.625000,28.7467,-95.2267,0206,10.80,-2.10,11.0000,101.0000
1983-10-10 03:30:00 UTC,2445617.645833,28.7467,-95.2267,0206,8.28,-3.52,9.0000,113.0000
1983-10-10 04:00:00 UTC,2445617.666667,28.7467,-95.2267,0206,6.63,-4.47,8.0000,124.0000
1983-10-10 04:30:00 UTC,2445617.687500,28.7467,-95.2267,0206,7.79,-4.50,9.0000,120.0000
1983-10-10 05:00:00 UTC,2445617.708333,28.7467,-95.2267,0206,9.62,-5.33,11.0000,119.0000
1983-10-10 05:30:00 UTC,2445617.729167,28.7467,-95.2267,0206,8.55,-6.92,11.0000,129.0000
1983-10-10 06:00:00 UTC,2445617.750000,28.7467,-95.2267,0206,5.16,-7.37,9.0000,145.0000
1983-10-10 06:30:00 UTC,2445617.770833,28.7467,-95.2267,0206,1.75,-5.74,6.0000,163.0000
1983-10-10 07:00:00 UTC,2445617.791667,28.7467,-95.2267,0206,-1.12,-4.87,5.0000,193.0000
1983-10-10 07:30:00 UTC,2445617.812500,28.7467,-95.2267,0206,-3.08,-3.94,5.0000,218.0000
1983-10-10 08:00:00 UTC,2445617.833333,28.7467,-95.2267,0206,-3.41,-3.66,5.0000,223.0000
1983-10-10 08:30:00 UTC,2445617.854167,28.7467,-95.2267,0206,-2.83,-2.83,4.0000,225.0000